KUIPER-00631

导读

**KUIPER-00631(NORAD 69784)是亚马逊“柯伊伯计划”(Project Kuiper)低轨宽带卫星星座的组网卫星之一,由美国运营,2026年中期发射入轨,部署于近地轨道(LEO)。** 该卫星属于亚马逊规划的3232颗规模全球卫星互联网星座,旨在为全球欠服务地区提供高速低延迟宽带接入,对标SpaceX星链,未来可支撑航空机载互联、偏远地区通信等场景。2026年6月FCC放宽该星座半数部署限期后,其所属批次正随阿丽亚娜6、ULA火箭批量发射推进组网,当前处于入轨调试阶段,将逐步提升至工作轨道参与组网。

Basic Information
目录编号:
69784
目录名称:
KUIPER-00631
国际标识:
2026-151X
轨道中心:
EARTH
卫星名称:
KUIPER-00631
卫星全名:
KUIPER-00631
卫星状态:
在轨 (已飞行12 天)
发射日期:
2026-07-02 UTC
国别 :
美国 (US)
星等 :
--
Orbit Information
数据来源 国际轨道数据 AOE轨道数据
星历时间 2026-07-13T21:35:14+0800
14小时前
查看轨道信息
2026-07-12T04:00:00+0800
2天前
查看轨道信息
半长轴 6833.962km 6833.993km
偏心率 0.0007831 0.0007792
轨道倾角 51.870° 51.871°
近地点辐角 148.849° 142.815°
升交点赤经 188.318° 196.689°
平近点角 211.297° 345.134°
近地点 450.473km 450.53km
远地点 461.177km 461.182km
周期 93.706分钟 93.707分钟
每日圈数 15.367173 15.367068
Detailed Information
使用方式:
暂无
2D Orbit Map
3D Orbit Map
Orbit Altitude Analysis Chart
Orbit Inclination Analysis Chart
Orbit Comprehensive Analysis Chart
View Comprehensive Chart